Weather History for Santa Ynez, CA

Change the Weather History Date:

Monday, December 31, 2012

  Actual Average (KSBA) Record (KSBA)
Temperature  
Mean Temperature 44 °F 52 °F  
Max Temperature 55 °F 63 °F 72 °F (1957)
Min Temperature 32 °F 40 °F 28 °F (1990)
Degree Days  
Heating Degree Days 22 13  
Month to date heating degree days 409  
Since 1 July heating degree days 884  
Cooling Degree Days 0 0  
Month to date cooling degree days 0  
Year to date cooling degree days 188  
Moisture  
Dew Point 32 °F    
Average Humidity 73    
Maximum Humidity 93    
Minimum Humidity 41    
Precipitation  
Precipitation 0.00 in 0.13 in 1.71 in (2005)
Month to date precipitation 2.94  
Year to date precipitation 17.76  
Since 1 July precipitation 5.71  
Sea Level Pressure  
Sea Level Pressure 30.20 in    
Wind  
Wind Speed 4 mph (NNE)    
Max Wind Speed 10 mph    
Max Gust Speed -    
Visibility 10 miles    
Events      
T = Trace of Precipitation, MM = Missing Value Source: NWS Daily Summary

Daily Weather History Graph

Daily Weather History Graph

Search for Another Location

Airport:

Trip Planner

Search our weather history database for the weather conditions in past years. The results will help you decide how hot, cold, wet, or windy it might be!

Date:

Astronomy

Dec. 31, 2012 Rise Set
Actual Time 7:07 AM PST 5:00 PM PST
Civil Twilight 6:39 AM PST 5:28 PM PST
Nautical Twilight 6:07 AM PST 5:59 PM PST
Astronomical Twilight 5:37 AM PST 6:30 PM PST
Moon 8:26 PM PST (12/31) 8:59 AM PST (12/31)
Length of Visible Light 10h 48m
Length of Day
9h 53m
Waning Gibbous, 89% of the Moon is Illuminated
Dec 31
Waning Gibbous
Jan 4
Last Quarter
Jan 11
New
Jan 18
First Quarter
Jan 26
Full

Hourly Weather History & Observations

Time (PST) Temp. Windchill Dew Point Humidity Pressure Visibility Wind Dir Wind Speed Gust Speed Precip Events Conditions
12:15 AM 39.2 °F 35.9 °F 32.0 °F 75% 30.14 in 10.0 mi WSW 4.6 mph - N/A   Clear
12:35 AM 42.8 °F 41.1 °F 32.0 °F 66% 30.13 in 10.0 mi NW 3.5 mph - N/A   Clear
12:55 AM 39.2 °F - 32.0 °F 75% 30.14 in 10.0 mi Calm Calm - N/A   Clear
1:15 AM 35.6 °F - 30.2 °F 81% 30.15 in 10.0 mi Calm Calm - N/A   Clear
1:35 AM 33.8 °F 30.8 °F 30.2 °F 87% 30.16 in 10.0 mi North 3.5 mph - N/A   Clear
1:55 AM 33.8 °F 29.6 °F 30.2 °F 87% 30.16 in 10.0 mi East 4.6 mph - N/A   Clear
2:15 AM 33.8 °F 30.8 °F 30.2 °F 87% 30.16 in 10.0 mi ENE 3.5 mph - N/A   Clear
2:35 AM 33.8 °F 30.8 °F 30.2 °F 87% 30.16 in 10.0 mi NE 3.5 mph - N/A   Clear
2:55 AM 33.8 °F 30.8 °F 30.2 °F 87% 30.17 in 10.0 mi East 3.5 mph - N/A   Clear
3:15 AM 33.8 °F 29.6 °F 30.2 °F 87% 30.16 in 10.0 mi ENE 4.6 mph - N/A   Clear
3:35 AM 32.0 °F 26.4 °F 30.2 °F 93% 30.16 in 10.0 mi East 5.8 mph - N/A   Clear
3:55 AM 32.0 °F 27.5 °F 30.2 °F 93% 30.16 in 10.0 mi ENE 4.6 mph - N/A   Clear
4:15 AM 32.0 °F 26.4 °F 30.2 °F 93% 30.16 in 10.0 mi ENE 5.8 mph - N/A   Clear
4:35 AM 32.0 °F 27.5 °F 30.2 °F 93% 30.16 in 10.0 mi ENE 4.6 mph - N/A   Clear
4:55 AM 32.0 °F 28.7 °F 30.2 °F 93% 30.15 in 10.0 mi NE 3.5 mph - N/A   Clear
5:15 AM 32.0 °F - 28.4 °F 87% 30.16 in 10.0 mi Calm Calm - N/A   Clear
5:35 AM 32.0 °F 27.5 °F 30.2 °F 93% 30.17 in 10.0 mi East 4.6 mph - N/A   Clear
5:55 AM 32.0 °F 28.7 °F 30.2 °F 93% 30.18 in 10.0 mi ESE 3.5 mph - N/A   Clear
6:15 AM 32.0 °F 27.5 °F 28.4 °F 87% 30.19 in 10.0 mi East 4.6 mph - N/A   Clear
6:35 AM 32.0 °F 24.8 °F 30.2 °F 93% 30.18 in 10.0 mi East 8.1 mph - N/A   Clear
6:55 AM 32.0 °F - 30.2 °F 93% 30.19 in 10.0 mi Calm Calm - N/A   Clear
7:15 AM 32.0 °F - 30.2 °F 93% 30.18 in 10.0 mi Calm Calm - N/A   Clear
7:35 AM 32.0 °F 28.7 °F 30.2 °F 93% 30.19 in 10.0 mi NNE 3.5 mph - N/A   Clear
7:55 AM 32.0 °F 28.7 °F 30.2 °F 93% 30.19 in 10.0 mi NE 3.5 mph - N/A   Clear
8:15 AM 32.0 °F - 30.2 °F 93% 30.20 in 10.0 mi Calm Calm - N/A   Clear
8:35 AM 33.8 °F - 32.0 °F 93% 30.21 in 10.0 mi Calm Calm - N/A   Clear
8:55 AM 35.6 °F - 32.0 °F 87% 30.21 in 10.0 mi Calm Calm - N/A   Clear
9:15 AM 37.4 °F - 32.0 °F 81% 30.22 in 10.0 mi Calm Calm - N/A   Clear
9:35 AM 41.0 °F - 33.8 °F 76% 30.23 in 10.0 mi Calm Calm - N/A   Clear
9:55 AM 41.0 °F - 32.0 °F 70% 30.23 in 10.0 mi Calm Calm - N/A   Clear
10:15 AM 42.8 °F - 33.8 °F 70% 30.23 in 10.0 mi Calm Calm - N/A   Clear
10:35 AM 44.6 °F 42.2 °F 33.8 °F 66% 30.23 in 10.0 mi WSW 4.6 mph - N/A   Clear
10:55 AM 46.4 °F 45.2 °F 33.8 °F 62% 30.23 in 10.0 mi West 3.5 mph - N/A   Clear
11:15 AM 50.0 °F - 33.8 °F 54% 30.22 in 10.0 mi Calm Calm - N/A   Clear
11:35 AM 51.8 °F - 33.8 °F 50% 30.22 in 10.0 mi WSW 4.6 mph - N/A   Clear
11:55 AM 51.8 °F - 33.8 °F 50% 30.21 in 10.0 mi Calm Calm - N/A   Clear
12:15 PM 53.6 °F - 32.0 °F 44% 30.20 in 10.0 mi NW 3.5 mph - N/A   Clear
12:35 PM 53.6 °F - 32.0 °F 44% 30.20 in 10.0 mi WNW 5.8 mph - N/A   Clear
12:55 PM 55.4 °F - 33.8 °F 44% 30.19 in 10.0 mi West 6.9 mph - N/A   Clear
1:15 PM 55.4 °F - 32.0 °F 41% 30.19 in 10.0 mi WNW 4.6 mph - N/A   Clear
1:35 PM 55.4 °F - 32.0 °F 41% 30.19 in 10.0 mi NW 3.5 mph - N/A   Clear
1:55 PM 55.4 °F - 32.0 °F 41% 30.19 in 10.0 mi West 9.2 mph - N/A   Clear
2:15 PM 55.4 °F - 32.0 °F 41% 30.19 in 10.0 mi WNW 10.4 mph - N/A   Clear
2:35 PM 55.4 °F - 32.0 °F 41% 30.19 in 10.0 mi WNW 8.1 mph - N/A   Clear
2:55 PM 55.4 °F - 32.0 °F 41% 30.20 in 10.0 mi West 8.1 mph - N/A   Clear
3:15 PM 53.6 °F - 32.0 °F 44% 30.20 in 10.0 mi WNW 6.9 mph - N/A   Clear
3:35 PM 53.6 °F - 32.0 °F 44% 30.20 in 10.0 mi West 5.8 mph - N/A   Clear
3:55 PM 51.8 °F - 33.8 °F 50% 30.19 in 10.0 mi West 8.1 mph - N/A   Clear
4:15 PM 50.0 °F - 33.8 °F 54% 30.18 in 10.0 mi West 5.8 mph - N/A   Clear
4:55 PM 48.2 °F - 33.8 °F 58% 30.20 in 10.0 mi WNW 6.9 mph - N/A   Clear
5:15 PM 46.4 °F - 33.8 °F 62% 30.20 in 10.0 mi Calm Calm - N/A   Clear
5:35 PM 46.4 °F - 33.8 °F 62% 30.20 in 10.0 mi Calm Calm - N/A   Clear
5:55 PM 44.6 °F 42.2 °F 32.0 °F 61% 30.22 in 10.0 mi West 4.6 mph - N/A   Clear
6:15 PM 44.6 °F 42.2 °F 33.8 °F 66% 30.22 in 10.0 mi WNW 4.6 mph - N/A   Clear
6:35 PM 42.8 °F 40.1 °F 33.8 °F 70% 30.23 in 10.0 mi SW 4.6 mph - N/A   Clear
6:55 PM 42.8 °F 40.1 °F 33.8 °F 70% 30.23 in 10.0 mi West 4.6 mph - N/A   Clear
7:15 PM 42.8 °F - 32.0 °F 66% 30.23 in 10.0 mi Calm Calm - N/A   Clear
7:35 PM 41.0 °F 39.0 °F 33.8 °F 76% 30.23 in 10.0 mi South 3.5 mph - N/A   Clear
7:55 PM 42.8 °F - 33.8 °F 70% 30.23 in 10.0 mi Calm Calm - N/A   Clear
8:15 PM 41.0 °F 38.0 °F 33.8 °F 76% 30.23 in 10.0 mi NE 4.6 mph - N/A   Clear
8:35 PM 39.2 °F 35.9 °F 33.8 °F 81% 30.23 in 10.0 mi East 4.6 mph - N/A   Clear
8:55 PM 41.0 °F 38.0 °F 35.6 °F 81% 30.23 in 10.0 mi ESE 4.6 mph - N/A   Clear
9:15 PM 39.2 °F 37.0 °F 33.8 °F 81% 30.24 in 10.0 mi NE 3.5 mph - N/A   Clear
9:35 PM 39.2 °F 37.0 °F 33.8 °F 81% 30.25 in 10.0 mi ENE 3.5 mph - N/A   Clear
9:55 PM 39.2 °F 35.9 °F 32.0 °F 75% 30.25 in 10.0 mi East 4.6 mph - N/A   Clear
10:15 PM 37.4 °F 33.8 °F 32.0 °F 81% 30.25 in 10.0 mi ENE 4.6 mph - N/A   Clear
10:35 PM 37.4 °F 32.1 °F 32.0 °F 81% 30.25 in 10.0 mi ENE 6.9 mph - N/A   Clear
10:55 PM 37.4 °F 34.9 °F 32.0 °F 81% 30.25 in 10.0 mi NE 3.5 mph - N/A   Clear
11:15 PM 35.6 °F 31.7 °F 32.0 °F 87% 30.25 in 10.0 mi ENE 4.6 mph - N/A   Clear
11:35 PM 35.6 °F 31.7 °F 32.0 °F 87% 30.25 in 10.0 mi ENE 4.6 mph - N/A   Clear
11:55 PM 35.6 °F 32.8 °F 32.0 °F 87% 30.24 in 10.0 mi East 3.5 mph - N/A   Clear